Location: Pine Mountain Observatory
(43.7910°N, 120.9377°W)
Time: 23:39:18
(UTC-07:00)

Envisat - Visible Passes

Search period start: 23 April 2019 00:00
Search period end: 03 May 2019 00:00
Orbit: 764 x 766 km, 98.2° (Epoch: 23 April)

Date Brightness Start Highest point End Pass type
(mag) Time Alt. Az. Time Alt. Az. Time Alt. Az.
25 Apr 5.5 20:39:19 10° SW 20:43:14 22° W 20:47:12 10° NW visible
27 Apr 5.9 21:06:50 10° WSW 21:09:04 13° W 21:11:19 10° WNW visible
28 Apr 5.2 20:27:36 10° SSW 20:31:55 28° W 20:36:16 10° NW visible
30 Apr 5.8 20:54:34 10° SW 20:57:42 16° W 21:00:51 10° NW visible
